This demonstration page uses our WeatherBlox Daily Observations layout. Learn more.

Left ArrowRight Arrow

39.01783, -85.05884

Hourly Observations for April 14, 2018

Temp ( °F °C ) Dew Point ( °F °C ) Humidity (%) Winds ( mph kmh ) Pressure ( in mb ) Visibility ( mi km ) Precip ( " mm )
12:52 am 00:52 Cloudy 62 16.7 45 7.2 54 54 S 7 11 29.82 1010 10 16 N/A
1:52 am 01:52 Cloudy 64 17.8 45 7.2 50 50 S 9 15 29.79 1009 10 16 N/A
2:52 am 02:52 Cloudy 65 18.3 44 6.7 47 47 S 12 19 29.77 1008 10 16 N/A
3:52 am 03:52 Cloudy 65 18.3 44 6.7 47 47 S 13 20 29.75 1008 10 16 N/A
4:52 am 04:52 Cloudy 65 18.3 44 6.7 47 47 S 14 22 29.75 1007 10 16 N/A
5:52 am 05:52 Cloudy 65 18.3 45 7.2 49 49 S 14 22 29.74 1007 10 16 N/A
6:52 am 06:52 Mostly Cloudy 64 17.8 46 7.8 52 52 S 13 20 29.74 1007 10 16 N/A
7:52 am 07:52 Mostly Cloudy 65 18.3 48 8.9 54 54 S 12 19 29.75 1007 10 16 N/A
8:52 am 08:52 Cloudy 65 18.3 50 10 59 59 S 6 9 29.78 1009 10 16 N/A
9:52 am 09:52 Cloudy 68 20 52 11.1 57 57 S 8 13 29.76 1008 10 16 N/A
10:52 am 10:52 Cloudy 69 20.6 52 11.1 55 55 SW 9 15 29.78 1009 10 16 N/A
11:19 am 11:19 Cloudy with Rain 64 17.8 56 13.3 75 75 SW 8 13 29.77 1008 2 3 0.06 1.52
11:34 am 11:34 Cloudy with Light Rain 63 17.2 57 13.9 81 81 WSW 8 13 29.77 1008 5 8 0.07 1.78
11:52 am 11:52 Cloudy with Light Rain 62 16.7 58 14.4 86 86 W 13 20 29.82 1010 4 6 0.08 2.03
12:19 pm 12:19 Cloudy with Light Rain 61 16.1 58 14.4 90 90 W 7 11 29.85 1011 2 2 0.02 0.51
12:29 pm 12:29 Cloudy with Light Rain 60 15.6 58 14.4 93 93 W 8 13 29.85 1011 2 2 0.03 0.76
12:52 pm 12:52 Cloudy with Light Rain 61 16.1 59 15 93 93 WSW 5 7 29.82 1010 2 2 0.07 1.78
12:56 pm 12:56 Cloudy with Light Rain 61 16.1 59 15 93 93 W 3 6 29.80 1009 4 6 0.01 0.25
1:26 pm 13:26 Cloudy 61 16.1 59 15 93 93 VRB 3 6 29.80 1009 9 14 0.01 0.25
1:52 pm 13:52 Cloudy 64 17.8 60 15.6 87 87 SSE 5 7 29.78 1009 10 16 0.01 0.25
2:52 pm 14:52 Cloudy 65 18.3 59 15 81 81 S 10 17 29.79 1009 10 16 N/A
3:52 pm 15:52 Cloudy 66 18.9 59 15 78 78 SSW 12 19 29.80 1009 10 16 N/A
4:52 pm 16:52 Cloudy with Light Rain 65 18.3 59 15 81 81 S 13 20 29.77 1008 10 16 N/A
5:52 pm 17:52 Cloudy 65 18.3 57 13.9 76 76 S 15 24 29.75 1008 10 16 N/A
6:52 pm 18:52 Cloudy with Light Rain 64 17.8 57 13.9 78 78 S 14 22 29.75 1008 10 16 N/A
7:52 pm 19:52 Cloudy 64 17.8 57 13.9 78 78 S 15 24 29.78 1008 10 16 N/A
8:52 pm 20:52 Cloudy 63 17.2 57 13.9 81 81 S 13 20 29.80 1009 10 16 N/A
9:52 pm 21:52 Cloudy 62 16.7 57 13.9 84 84 S 13 20 29.81 1010 10 16 N/A
10:52 pm 22:52 Cloudy with Light Rain 61 16.1 57 13.9 87 87 S 14 22 29.82 1010 8 13 0.01 0.25
11:52 pm 23:52 Cloudy with Rain 60 15.6 58 14.4 93 93 S 12 19 29.81 1009 5 8 0.10 2.54

Powered by AerisWeather